Info for "Translations/LanguagePackSchedule"

Not logged in - Log In / Register

[Show "Revision History"] [Show "General Page Infos"] [Show "Page hits and edits"]

Revision History

Showing page edit history entries from 1 to 54 out of 54 entries total. (5 | 10 | 25 | 50 | 100 | 200 items per page)

# Date Size Editor Comment Action
54 2022-06-16 14:56:13 3096 to previous cjwatson update crontab file name view
53 2022-06-16 14:55:37 3082 to previous cjwatson hirsute → kinetic view
52 2021-05-25 13:53:54 2988 to previous ilasc   view
51 2021-05-13 07:44:31 3394 to previous ilasc   view
50 2021-03-12 10:59:18 3332 to previous cjwatson update schedule view
49 2019-03-18 12:25:51 3062 to previous cjwatson zesty → cosmic, belatedly view
48 2019-03-18 12:25:02 3058 to previous cjwatson artful → disco view
47 2018-01-15 17:15:20 3062 to previous cjwatson yakkety → bionic view
46 2017-06-22 11:32:08 3066 to previous wgrant s/vivid/artful/ view
45 2017-03-17 02:18:58 3063 to previous wgrant fix link view
44 2017-03-17 02:17:42 3059 to previous wgrant add zesty view
43 2016-09-13 09:33:04 2918 to previous wgrant add missed RTM 15.04 view
42 2016-09-13 09:31:00 2906 to previous wgrant s/wily/yakkety/ view
41 2016-09-13 09:29:13 2894 to previous wgrant Update with current state (xenial was missed) view
40 2015-07-07 07:59:30 2681 to previous wgrant Update for wily view
39 2014-09-02 13:10:32 2770 to previous wgrant ubuntu-rtm 14.09 exports are on Thursday view
38 2014-05-29 07:29:48 2697 to previous dpm   view
37 2014-05-29 07:28:52 2686 to previous dpm Updated schedule for Utopic view
36 2013-12-13 06:39:09 2809 to previous wgrant And update the build schedule too view
35 2013-12-13 06:34:25 2814 to previous wgrant Update export schedule view
34 2012-09-24 11:31:25 2818 to previous dpm   view
33 2012-08-20 10:18:02 2921 to previous dpm Updated export and build times view
32 2012-03-15 12:08:00 2920 to previous wgrant Update fastdowntime time. view
31 2012-03-15 12:01:11 2918 to previous dpm Updated the export times view
30 2011-12-13 18:03:45 2915 to previous dpm Removed note on Launchpad rollouts. They do not apply now that we do continuous rollouts view
29 2011-12-13 16:54:45 3178 to previous dpm Updated release schedule for Precise view
28 2011-11-04 10:52:20 3310 to previous dpm   view
27 2011-09-14 14:34:45 3170 to previous dpm Updated build times view
26 2011-09-14 13:21:14 3105 to previous henninge Moved export time. No more LP release day. view
25 2011-08-21 08:25:15 2948 to previous dpm   view
24 2011-06-03 15:45:27 2798 to previous deryck   view
23 2011-06-03 10:57:30 2727 to previous dpm Updated exports schedule for Oneiric view
22 2011-03-04 18:22:41 2742 to previous dpm   view
21 2011-03-04 16:35:47 2574 to previous dpm Added status view
20 2010-11-24 08:49:51 2503 to previous dpm Both exports and builds are now set. Updated the schedule accordingly view
19 2010-10-18 16:20:32 2880 to previous dpm Proposal for Natty schedule view
18 2010-09-29 12:04:24 2505 to previous dpm Added some notes, rearranged layout view
17 2010-09-29 11:52:59 2375 to previous dpm Updated info in a table to show the language pack build schedule interaction with that of the LP exports view
16 2010-09-13 12:27:48 1836 to previous dpm Added some additional feedback from an e-mail from Danilo view
15 2010-08-24 17:35:55 1251 to previous dpm   view
14 2010-08-24 17:34:41 1220 to previous dpm   view
13 2010-06-30 10:14:05 1215 to previous jtv   view
12 2010-06-29 16:15:43 985 to previous dpm Preliminary schedule update view
11 2010-02-23 07:59:05 980 to previous dpm   view
10 2009-12-11 17:56:51 922 to previous danilo   view
9 2009-12-11 14:44:33 1056 to previous dpm   view
8 2009-12-10 16:23:12 813 to previous dpm Moved exports away from Wed view
7 2009-12-10 16:05:06 764 to previous dpm Added newly proposed schedule view
6 2009-11-10 15:14:57 253 to previous danilo   view
5 2009-11-10 15:01:21 440 to previous danilo   view
4 2009-11-10 14:23:15 568 to previous danilo   view
3 2009-10-15 17:01:40 762 to previous danilo   view
2 2009-07-10 16:38:19 634 to previous danilo   view
1 2009-07-10 16:37:26 263 danilo   view